{"data":{"norad_id":52129,"intl_designator":"2022-029AT","name":"STARLINK-3661","alt_names":[],"object_type":"PAYLOAD","status":"ACTIVE","operator":null,"country":"US","launch_date":"2022-03-19","launch_site_code":"AFETR","launch_vehicle":null,"mission":null,"orbit_class":"UNKNOWN","rcs_meters":null,"size_class":null,"mass_kg":null,"dimensions":null,"purposes":["comms"],"wikipedia_slug":null,"has_3d_model":false,"image_url":null,"decayed_at":null,"tle_current":{"epoch":"2026-09-20T00:36:08.839584Z","epoch_age_seconds":96503,"freshness":"FRESH","line1":"1 52129U 22029AT  26263.02510231  .00000784  00000+0  60055-4 0  9995","line2":"2 52129  53.1611 274.6464 0001704  66.1696 293.9476 15.13427885250299","mean_motion":15.13427885,"eccentricity":0.0001704,"inclination_deg":53.1611,"raan_deg":274.6464,"arg_perigee_deg":66.1696,"mean_anomaly_deg":293.9476,"bstar":6.0055e-5,"rev_number":25029,"period_min":95.148240247998,"perigee_km":524.57907447535,"apogee_km":526.93192103859,"semimajor_km":6903.892497757,"source":"CELESTRAK","updated_at":"2026-09-20T09:00:39.991151Z"}}}